Location: Moydans
(44.3997°N, 5.5038°E)
Time: 09:15:43
(UTC+02:00)

Nauka - Visible Passes

Search period start: 23 September 2021 00:00
Search period end: 03 October 2021 00:00
Orbit: 419 x 424 km, 51.6° (Epoch: 22 September)

Date Brightness Start Highest point End Pass type
(mag) Time Alt. Az. Time Alt. Az. Time Alt. Az.
23 Sep ? 20:10:27 10° W 20:13:35 36° NNW 20:16:44 10° NE visible
23 Sep ? 21:48:18 10° NW 21:50:41 22° N 21:50:41 22° N visible
24 Sep ? 21:01:12 10° WNW 21:03:58 23° N 21:05:32 17° NE visible
24 Sep ? 22:38:26 10° NW 22:38:31 10° NW 22:38:31 10° NW visible
25 Sep ? 20:14:02 10° WNW 20:16:54 25° N 20:19:46 10° NE visible
25 Sep ? 21:51:31 10° NW 21:53:20 22° NNW 21:53:20 22° NNW visible
26 Sep ? 21:04:32 10° NW 21:07:22 24° N 21:08:09 22° NNE visible
27 Sep ? 20:17:30 10° NW 20:20:16 23° N 20:22:58 10° NE visible
27 Sep ? 21:54:29 10° NW 21:55:58 22° NW 21:55:58 22° NW visible
28 Sep ? 21:07:35 10° NW 21:10:40 32° NNE 21:10:47 32° NNE visible
29 Sep ? 20:20:40 10° NW 20:23:36 27° NNE 20:25:38 16° ENE visible
29 Sep ? 21:57:24 10° WNW 21:58:38 21° WNW 21:58:38 21° WNW visible
30 Sep ? 21:10:29 10° NW 21:13:31 55° N 21:13:31 55° N visible
01 Oct ? 20:23:35 10° NW 20:26:49 42° NNE 20:28:27 24° E visible
01 Oct ? 22:00:32 10° WNW 22:01:27 16° W 22:01:27 16° W visible
02 Oct ? 21:13:27 10° WNW 21:16:26 53° WSW 21:16:26 53° WSW visible
